Location: Asis
(14.1331°N, 120.9056°E)
Time: 14:42:27
(UTC+00:00)

Cosmos 1862 Rocket - Pass Details

Date: 15 January 2026
Orbit: 596 x 627 km, 82.5° (Epoch: 14 February)

Event Time Altitude Azimuth Distance (km) Brightness Sun altitude
Rises 11:10:53 0° 194° (SSW) 2,899 7.4 -20.0°
Reaches altitude 10° 11:13:09 10° 199° (SSW) 1,995 6.6 -20.5°
Maximum altitude 11:17:27 52° 275° (W) 782 4.4 -21.5°
Drops below altitude 10° 11:21:46 10° 352° (N) 1,995 6.1 -22.5°
Enters shadow 11:22:04 - 353° (N) 2,114 6.2 -22.5°
